This demonstration page uses our WeatherBlox Daily Observations layout. Learn more.

Left ArrowRight Arrow

Hourly Observations for May 21, 2021

Temp ( °F °C ) Dew Point ( °F °C ) Humidity (%) Winds ( mph kmh ) Pressure ( in mb ) Visibility ( mi km ) Precip ( " mm )
12:15 am 00:15 Clear 63 17.1 59 14.8 86 86 SSE 16 26 29.87 1012 10 16 N/A
12:35 am 00:35 Clear 63 17 59 15.1 89 89 SSE 17 28 29.87 1012 10 16 N/A
12:55 am 00:55 Clear 62 16.9 59 15.2 90 90 SSE 14 22 29.88 1012 10 16 N/A
1:15 am 01:15 Mostly Cloudy 62 16.6 59 15.1 91 91 SSE 16 26 29.88 1012 10 16 N/A
1:35 am 01:35 Partly Cloudy 62 16.5 59 15.1 92 92 SSE 16 26 29.88 1012 10 16 N/A
1:55 am 01:55 Mostly Cloudy 61 16.3 59 15.1 93 93 SSE 13 20 29.89 1012 10 16 N/A
2:15 am 02:15 Cloudy 62 16.5 60 15.4 93 93 SSE 12 19 29.89 1012 10 16 N/A
2:35 am 02:35 Cloudy 62 16.6 60 15.5 93 93 SSE 13 20 29.89 1012 10 16 N/A
2:55 am 02:55 Cloudy 63 17 60 15.6 92 92 S 16 26 29.88 1012 10 16 N/A
3:15 am 03:15 Cloudy 63 17 60 15.6 92 92 SSE 15 24 29.88 1012 10 16 N/A
3:35 am 03:35 Cloudy 63 17 60 15.6 92 92 SSE 15 24 29.88 1012 10 16 N/A
3:55 am 03:55 Cloudy 62 16.7 60 15.5 93 93 SSE 14 22 29.88 1012 10 16 N/A
4:15 am 04:15 Cloudy with Drizzle 62 16.7 60 15.6 93 93 SSE 16 26 29.87 1012 10 16 N/A
4:35 am 04:35 Mostly Cloudy 62 16.6 60 15.5 93 93 SSE 18 30 29.89 1012 10 16 N/A
4:55 am 04:55 Cloudy 62 16.5 60 15.5 94 94 SSE 17 28 29.90 1012 10 16 N/A
5:15 am 05:15 Cloudy 62 16.6 60 15.5 93 93 SSE 15 24 29.90 1012 10 16 N/A
5:35 am 05:35 Cloudy 62 16.6 60 15.5 93 93 SSE 15 24 29.90 1012 10 16 N/A
5:55 am 05:55 Cloudy 62 16.7 60 15.6 93 93 S 14 22 29.90 1013 10 16 N/A
6:15 am 06:15 Cloudy 63 17 60 15.7 92 92 SSE 17 28 29.91 1013 10 16 N/A
6:35 am 06:35 Cloudy 63 17 60 15.7 92 92 S 15 24 29.91 1013 10 16 N/A
6:55 am 06:55 Cloudy 63 17.1 60 15.8 92 92 S 14 22 29.92 1013 10 16 N/A
7:15 am 07:15 Cloudy 63 17.2 61 15.9 92 92 SSE 14 22 29.92 1013 10 16 N/A
7:35 am 07:35 Cloudy 63 17.2 61 15.9 92 92 S 17 28 29.92 1013 10 16 N/A
7:55 am 07:55 Cloudy 64 17.5 61 16 91 91 S 20 31 29.93 1013 10 16 N/A
8:15 am 08:15 Cloudy 64 17.6 61 16 90 90 S 21 33 29.94 1014 10 16 N/A
8:35 am 08:35 Cloudy 64 17.6 61 16.1 91 91 S 18 30 29.94 1014 7 11 N/A
8:55 am 08:55 Cloudy with Mist and Fog 64 17.6 61 16.2 92 92 S 18 30 29.95 1014 5 8 N/A
9:15 am 09:15 Cloudy with Mist and Fog 64 17.7 62 16.4 92 92 S 20 31 29.96 1014 5 8 N/A
9:35 am 09:35 Cloudy with Mist and Fog 64 17.7 62 16.6 93 93 S 18 30 29.97 1015 5 8 N/A
9:55 am 09:55 Cloudy 64 17.9 62 16.6 92 92 S 18 30 29.97 1015 7 11 N/A
10:15 am 10:15 Cloudy 65 18.1 62 16.7 92 92 S 18 30 29.97 1015 10 16 N/A
10:35 am 10:35 Cloudy 65 18.3 62 16.7 90 90 S 16 26 29.97 1015 10 16 N/A
10:55 am 10:55 Cloudy 65 18.5 62 16.6 89 89 S 21 33 29.97 1015 10 16 N/A
11:15 am 11:15 Cloudy 66 18.8 62 16.7 88 88 S 18 30 29.97 1015 10 16 N/A
11:35 am 11:35 Cloudy 66 19.1 62 16.7 86 86 S 21 33 29.96 1015 10 16 N/A
11:55 am 11:55 Cloudy 67 19.6 62 16.6 83 83 S 24 39 29.96 1015 10 16 N/A
12:15 pm 12:15 Cloudy 69 20.5 62 16.6 78 78 S 22 35 29.96 1015 10 16 N/A
12:35 pm 12:35 Cloudy 70 21.3 62 16.8 76 76 SSE 25 41 29.95 1014 10 16 N/A
12:55 pm 12:55 Cloudy 71 21.8 62 16.6 72 72 S 24 39 29.94 1014 10 16 N/A
1:15 pm 13:15 Cloudy 72 22.1 62 16.7 72 72 SSE 25 41 29.94 1014 10 16 N/A
1:35 pm 13:35 Cloudy 73 22.8 62 16.6 68 68 S 26 43 29.93 1014 10 16 N/A
1:55 pm 13:55 Cloudy 73 23 62 16.6 67 67 S 29 46 29.93 1014 10 16 N/A
2:15 pm 14:15 Mostly Cloudy 74 23.6 62 16.5 65 65 SSE 32 52 29.93 1013 10 16 N/A
2:35 pm 14:35 Mostly Cloudy 74 23.6 62 16.4 64 64 SSE 23 37 29.93 1013 10 16 N/A
2:55 pm 14:55 Partly Cloudy 75 24 62 16.5 63 63 S 29 46 29.91 1013 10 16 N/A
3:15 pm 15:15 Partly Cloudy 75 23.9 62 16.6 64 64 S 28 44 29.92 1013 10 16 N/A
3:35 pm 15:35 Partly Cloudy 76 24.4 62 16.5 61 61 S 24 39 29.90 1013 10 16 N/A
3:55 pm 15:55 Partly Cloudy 76 24.3 62 16.6 62 62 SSE 22 35 29.91 1013 10 16 N/A
4:15 pm 16:15 Partly Cloudy 76 24.7 62 16.6 61 61 SSE 25 41 29.92 1013 10 16 N/A
4:35 pm 16:35 Mostly Cloudy 76 24.5 62 16.9 63 63 S 24 39 29.92 1013 10 16 N/A
4:55 pm 16:55 Partly Cloudy 77 24.8 62 16.8 61 61 S 24 39 29.91 1013 10 16 N/A
5:15 pm 17:15 Partly Cloudy 77 24.9 62 16.8 61 61 S 24 39 29.91 1013 10 16 N/A
5:35 pm 17:35 Mostly Cloudy 77 25.2 62 16.8 60 60 SSE 25 41 29.91 1013 10 16 N/A
5:55 pm 17:55 Mostly Cloudy 77 25 62 16.5 59 59 SSE 26 43 29.90 1012 10 16 N/A
6:15 pm 18:15 Partly Cloudy 77 25.2 62 16.5 59 59 SSE 25 41 29.90 1013 10 16 N/A
6:35 pm 18:35 Partly Cloudy 77 25.2 62 16.7 59 59 S 26 43 29.91 1013 10 16 N/A
6:55 pm 18:55 Partly Cloudy 77 25.2 62 16.5 59 59 SSE 23 37 29.89 1012 10 16 N/A
7:15 pm 19:15 Sunny 77 25 62 16.4 59 59 SSE 24 39 29.91 1013 10 16 N/A
7:35 pm 19:35 Sunny 77 24.8 62 16.4 60 60 SSE 23 37 29.91 1013 10 16 N/A
7:55 pm 19:55 Partly Cloudy 76 24.5 62 16.5 61 61 SSE 25 41 29.92 1013 10 16 N/A
8:15 pm 20:15 Partly Cloudy 74 23.5 61 16.3 64 64 SSE 17 28 29.93 1013 10 16 N/A
8:35 pm 20:35 Sunny 73 23 61 15.9 64 64 SSE 18 30 29.93 1014 10 16 N/A
8:55 pm 20:55 Clear 72 22.3 60 15.7 66 66 SSE 18 30 29.94 1014 10 16 N/A
9:15 pm 21:15 Clear 71 21.8 60 15.7 68 68 SSE 14 22 29.95 1014 10 16 N/A
9:35 pm 21:35 Clear 71 21.5 61 16 71 71 SSE 17 28 29.95 1014 10 16 N/A
9:55 pm 21:55 Clear 71 21.5 60 15.7 70 70 SSE 17 28 29.96 1015 10 16 N/A
10:15 pm 22:15 Clear 71 21.5 60 15.6 69 69 SSE 15 24 29.98 1015 10 16 N/A
10:35 pm 22:35 Clear 71 21.5 60 15.6 69 69 SSE 15 24 29.99 1016 10 16 N/A
10:55 pm 22:55 Clear 70 21.3 60 15.6 70 70 SSE 18 30 29.99 1015 10 16 N/A
11:15 pm 23:15 Clear 69 20.8 60 15.6 72 72 SSE 15 24 30.00 1016 10 16 N/A
11:35 pm 23:35 Clear 69 20.5 61 16 76 76 SSE 14 22 30.00 1016 10 16 N/A
11:55 pm 23:55 Clear 69 20.3 61 16.2 77 77 SSE 13 20 30.02 1017 10 16 N/A

Powered by AerisWeather